Theta_e
325 319 317 317 312 314 311 305 300 297 293 290 287 293 296 294 296 296 297 296 298 298 298 296 296 300 301 299 300 299 299 298 297 297 301 310 312 315 323 332 329 331 336 339 343 347 350 348 351 353 354 355 355 355 354 354 353 353 352 351 350 350 349 348 348 347 347 347 348 347 348 347 347 347 347 348 348 349 349 349 349 349 348 347 347 347 346 345 344 344 343 342 341 339 338 338 337
319 318 313 315 317 315 310 299 293 289 288 289 291 288 292 292 295 294 297 297 300 302 296 295 297 296 295 296 295 300 301 300 300 305 305 308 311 314 317 329 329 333 336 340 344 346 349 351 348 352 355 355 355 355 355 354 353 353 352 351 350 350 349 348 347 346 346 347 347 347 348 347 347 347 347 348 348 348 349 348 349 348 348 347 346 346 346 346 345 345 343 342 340 338 337 336 335
318 317 317 313 314 308 303 300 300 284 288 287 290 291 292 294 295 296 295 297 299 297 294 296 296 298 300 300 301 300 303 301 297 299 303 308 311 311 319 327 329 334 337 341 344 346 349 349 346 351 355 355 354 355 354 354 353 353 352 351 350 350 349 348 347 345 347 345 347 347 348 347 347 347 347 347 348 348 348 348 348 348 348 347 347 347 346 346 345 344 343 341 339 337 336 334 333
316 316 312 311 311 303 298 292 288 288 287 286 288 291 290 295 294 294 294 295 295 293 296 301 302 301 301 298 301 299 299 302 301 306 306 314 313 313 321 327 329 335 338 341 344 346 348 347 344 351 353 355 354 355 354 354 353 353 352 351 350 350 349 348 346 347 347 346 347 347 348 348 347 347 347 347 347 347 347 348 347 348 347 347 346 345 346 346 344 343 342 341 340 336 334 333 332
314 316 310 308 304 302 294 290 287 287 289 286 290 292 291 292 294 293 294 292 292 293 297 300 299 301 301 302 300 301 304 305 307 305 310 312 314 315 323 328 332 336 338 340 343 346 348 343 344 347 353 354 354 354 354 354 353 353 352 351 350 349 349 348 346 347 348 348 348 348 348 348 347 347 347 346 346 347 347 347 347 347 346 346 346 346 345 344 343 342 341 340 339 336 333 331 331
310 311 308 309 306 301 296 293 292 291 291 289 290 297 293 291 293 293 294 294 296 295 297 297 301 302 301 301 299 304 301 306 309 309 311 315 317 319 326 331 333 335 337 340 343 345 348 341 344 346 353 354 354 354 354 353 352 352 352 351 350 349 349 348 347 348 349 349 349 347 348 347 347 348 346 346 346 346 347 347 347 346 346 345 344 344 344 343 342 341 339 339 338 335 332 330 330
312 307 304 306 301 299 294 287 290 289 298 291 295 292 293 294 292 292 295 298 298 297 295 301 295 299 300 299 301 301 301 308 312 314 314 319 317 323 330 334 334 334 336 339 342 344 346 340 344 349 351 351 353 354 353 353 352 352 352 351 350 349 349 347 348 348 348 348 348 348 348 347 348 347 346 346 345 346 346 347 347 346 345 344 344 343 342 341 340 339 339 338 336 333 330 328 329
311 309 301 299 294 292 290 287 291 289 296 290 294 293 293 292 290 293 294 297 298 300 298 293 295 300 301 298 302 304 300 303 314 311 313 316 316 327 331 334 333 333 335 336 340 343 339 339 343 347 349 352 352 353 353 353 353 352 352 351 350 349 349 348 348 347 347 348 348 348 348 348 348 347 347 346 345 346 346 346 346 346 344 343 342 340 340 340 340 340 338 337 334 331 329 327 327
305 304 297 299 291 288 287 291 292 289 290 291 293 292 300 299 294 295 296 295 297 295 295 299 297 297 297 298 299 303 302 304 305 309 317 318 320 328 332 332 332 332 334 336 338 340 343 338 340 346 346 350 351 353 354 353 353 352 351 351 351 350 349 348 348 348 349 348 348 348 348 348 348 347 347 346 346 346 346 346 345 345 344 343 342 340 341 339 341 340 337 334 331 328 327 326 327
305 302 297 294 290 290 285 291 291 294 292 293 292 294 292 292 293 294 296 297 299 296 298 295 296 300 298 300 299 306 307 304 303 318 320 319 321 328 331 331 330 332 334 337 338 339 341 336 336 340 343 348 350 351 353 352 353 352 352 351 351 350 350 349 348 348 348 348 348 348 348 348 347 347 346 346 346 346 346 345 345 345 343 343 341 341 341 340 341 340 336 333 330 327 326 325 326
300 296 294 292 285 286 288 289 286 290 291 292 292 293 294 292 293 294 293 295 293 296 296 294 300 299 297 299 300 304 303 301 314 316 318 317 321 328 330 328 329 334 334 336 338 339 339 342 334 336 340 342 346 349 350 351 352 351 351 351 350 350 350 349 349 349 350 348 349 348 348 347 347 346 346 346 346 346 346 345 344 343 343 342 341 340 340 341 340 338 335 332 329 326 325 324 324
299 293 292 284 286 288 287 287 288 289 291 290 298 294 295 294 293 296 296 297 293 292 295 297 301 298 298 295 305 305 301 305 303 308 311 315 319 319 329 324 328 333 335 336 337 338 339 340 341 337 335 337 341 344 346 347 349 350 350 350 350 350 350 349 349 349 350 349 349 349 348 347 347 346 346 345 345 345 345 344 344 343 343 342 341 339 338 340 338 337 334 330 328 325 323 323 323
295 289 287 286 287 287 286 287 290 292 289 292 296 297 292 294 297 296 294 293 292 295 298 297 299 299 299 301 302 297 302 302 302 305 310 315 318 317 318 320 326 330 333 335 336 337 337 338 339 341 339 333 335 336 340 341 344 347 348 348 348 348 348 348 348 349 349 349 349 349 348 346 345 347 346 345 345 344 344 343 345 342 342 341 339 337 338 340 338 335 332 329 326 324 322 321 322
296 291 291 287 284 285 286 291 288 292 292 295 291 292 292 296 295 295 293 296 295 296 298 297 298 299 301 297 297 294 298 301 301 309 312 315 314 318 318 318 324 328 330 334 335 337 337 337 338 340 341 342 344 338 334 337 341 344 345 345 345 345 345 346 346 346 346 346 345 344 343 342 344 345 345 344 345 345 343 342 343 343 341 340 338 339 340 339 336 333 331 329 326 323 321 321 321
301 292 288 286 283 287 286 293 290 287 294 295 297 294 293 297 293 290 297 292 299 295 296 297 302 300 296 297 297 300 300 301 307 310 314 316 317 317 317 317 317 321 326 331 334 335 336 337 338 339 341 343 343 344 345 343 334 339 341 341 341 342 343 342 343 342 341 342 342 340 338 337 337 338 339 341 341 339 337 336 342 343 341 339 339 340 339 337 335 333 331 328 326 323 320 319 319
296 291 286 288 287 285 289 289 285 288 295 291 294 290 292 297 293 297 296 297 298 299 295 302 299 300 298 298 302 298 299 303 310 313 317 315 314 315 316 317 318 318 321 327 331 333 334 336 337 338 340 342 343 343 344 345 336 332 336 337 338 339 339 340 339 337 335 335 334 334 331 335 333 338 330 339 334 338 335 336 337 339 342 338 339 339 338 336 334 332 331 329 326 323 321 320 319
294 292 290 283 288 286 288 289 288 293 291 291 291 293 296 295 294 293 295 295 298 297 292 296 301 298 298 298 296 296 304 309 311 312 311 311 312 313 314 314 315 318 318 324 326 330 331 333 335 337 339 341 342 343 343 344 343 330 333 332 332 335 336 335 336 331 328 327 328 325 324 339 342 342 339 342 329 341 328 328 334 338 341 340 339 338 337 335 334 332 330 329 325 320 316 314 315
292 287 284 287 286 286 288 291 290 294 293 295 293 291 294 293 294 298 296 295 291 292 294 295 296 296 296 297 295 297 302 304 307 308 307 307 308 309 309 310 311 312 315 318 321 327 330 332 334 336 337 339 341 342 343 343 343 336 344 343 342 339 333 331 338 343 330 338 322 329 336 337 340 342 340 333 338 336 331 325 330 335 339 336 337 338 336 335 333 332 330 327 322 316 310 308 305
288 286 288 289 285 291 291 291 291 293 295 292 292 289 293 296 294 296 296 294 292 296 297 294 294 296 296 296 296 297 298 298 300 300 300 300 301 301 301 304 304 306 307 310 313 317 323 331 333 335 336 338 340 341 342 343 343 341 341 345 344 333 337 335 341 337 336 338 338 338 336 340 338 337 338 335 335 326 333 324 328 331 333 331 335 336 335 334 333 332 329 324 318 311 307 306 304
292 291 289 286 287 289 290 291 294 292 294 294 294 292 292 295 294 295 297 294 293 295 296 294 294 296 295 294 297 297 297 297 298 298 297 297 298 298 298 299 300 301 302 304 306 312 316 325 331 334 335 337 338 340 341 342 343 344 343 341 344 344 342 341 341 339 337 337 338 337 338 340 339 339 328 324 328 334 330 321 325 327 328 327 329 332 332 333 332 330 326 320 313 307 304 302 302
295 291 287 292 289 293 294 290 292 291 292 294 292 291 292 293 292 295 293 295 296 294 294 296 297 295 293 295 296 296 296 296 297 297 296 297 298 298 298 299 299 300 301 303 306 306 308 313 325 331 335 336 337 338 339 340 342 342 344 343 340 340 343 343 342 341 340 338 337 337 338 338 338 337 335 334 334 332 331 330 331 331 333 332 325 331 331 332 330 328 320 312 311 308 304 301 302
294 295 291 292 290 293 294 291 291 292 290 292 289 293 297 293 292 293 294 294 295 295 296 293 292 294 295 295 295 295 295 295 295 295 295 296 296 297 298 299 300 301 302 303 304 305 306 308 312 327 333 335 336 337 338 339 340 341 341 342 342 342 340 339 342 341 340 339 337 336 335 334 336 337 336 335 335 333 331 330 329 330 329 329 329 329 329 328 324 323 318 313 308 304 303 303 304
295 290 291 291 291 295 294 291 291 290 292 292 293 294 293 292 293 291 293 295 294 291 293 294 294 295 296 295 294 294 294 294 294 294 295 295 295 296 297 298 299 299 301 303 304 306 308 309 309 317 329 334 335 337 338 338 339 340 340 340 340 340 342 340 339 337 337 339 339 337 336 336 336 335 333 331 332 332 331 331 329 329 331 330 327 327 326 326 324 320 316 312 306 306 304 304 303
293 294 290 295 291 295 293 296 289 290 292 293 292 291 294 292 294 291 292 292 290 294 295 295 295 295 295 293 293 293 293 293 293 294 295 295 295 296 297 297 298 300 301 303 305 307 309 310 310 312 323 332 334 336 337 338 339 339 340 338 338 335 338 338 340 339 337 338 338 337 335 337 336 333 333 332 332 331 329 326 327 328 328 325 322 325 324 321 318 317 315 309 307 306 307 306 305
293 293 291 292 290 292 291 289 288 288 290 292 290 292 293 292 292 292 293 290 292 294 294 294 294 293 293 293 292 292 292 293 293 294 295 295 296 297 297 297 298 300 301 302 304 307 309 311 311 311 321 328 333 335 335 337 338 338 338 338 339 334 339 340 338 339 336 335 334 335 335 334 333 333 332 333 330 330 329 328 326 325 323 321 323 324 323 319 319 318 315 312 309 307 305 306 304
292 293 290 289 289 289 290 290 290 290 290 289 292 292 291 290 292 292 292 290 292 294 293 293 292 292 292 292 292 292 292 292 292 293 293 295 295 295 295 296 297 297 299 302 304 305 308 312 314 313 319 325 330 334 335 335 335 336 336 336 337 337 338 335 333 334 334 336 334 332 333 335 334 334 333 332 332 330 328 327 327 324 321 320 322 321 320 321 320 316 314 312 310 308 307 304 303
291 290 289 291 292 290 291 291 291 289 291 289 293 292 291 291 292 292 291 289 291 293 292 292 291 291 291 291 291 292 291 291 291 292 293 293 294 294 294 295 296 297 300 302 302 303 307 311 315 315 316 322 327 331 333 334 334 335 334 335 334 335 336 336 333 332 333 333 331 332 333 331 329 331 332 331 331 330 326 325 326 325 324 322 322 323 317 319 319 318 316 314 312 310 308 302 302
289 292 290 289 288 290 289 289 289 290 293 288 292 290 290 290 292 291 291 291 293 291 291 290 290 290 291 291 291 291 291 292 292 292 291 291 292 293 293 294 295 296 298 299 301 303 305 307 313 315 318 322 326 327 328 332 332 332 331 333 334 335 331 331 332 334 329 330 330 330 332 332 331 329 328 327 329 326 326 326 327 324 323 320 319 320 318 317 317 315 313 313 311 310 307 303 302
290 290 293 288 289 293 290 290 289 290 293 288 290 291 291 288 289 291 290 292 292 291 290 290 289 290 290 290 291 290 291 291 291 291 291 292 292 293 293 294 294 295 298 299 300 304 303 306 311 314 318 322 326 326 326 328 330 331 332 331 330 330 330 329 326 326 326 327 325 324 324 324 325 329 328 326 324 326 325 324 323 323 322 319 317 317 316 315 313 312 310 310 309 308 309 306 303
291 289 288 291 288 290 292 289 289 291 292 286 291 290 288 289 289 290 291 289 291 291 289 289 289 289 289 289 290 290 290 290 290 290 291 291 292 292 292 294 295 295 296 298 300 302 303 306 309 313 315 316 317 322 323 324 323 322 321 321 319 319 318 318 317 318 318 319 319 319 320 319 320 322 323 323 323 325 323 322 322 320 319 318 317 316 315 313 314 314 311 312 310 311 311 310 309
293 289 285 286 287 287 290 289 288 294 291 288 292 291 290 288 290 291 291 288 291 289 289 289 288 288 289 289 289 289 290 290 290 290 290 291 292 292 292 293 293 294 295 296 297 299 302 305 308 313 314 315 316 317 318 317 317 316 316 315 314 314 314 314 315 315 314 314 315 315 315 316 318 319 319 319 318 318 319 318 316 316 315 314 314 313 314 313 315 314 310 312 309 309 308 306 307
284 289 286 281 287 286 287 290 287 291 291 288 293 288 291 290 289 291 291 290 290 288 288 288 287 288 288 288 288 288 289 289 290 290 290 290 291 291 292 292 293 293 294 295 296 298 300 303 308 312 314 315 315 315 315 314 313 313 312 310 311 311 311 310 311 311 311 312 311 312 313 313 314 315 316 317 316 316 315 314 312 312 313 313 312 312 312 312 310 310 307 309 310 310 306 307 302
281 287 285 285 284 284 288 290 286 288 289 289 291 289 285 289 287 290 290 289 288 287 287 287 287 287 288 287 288 287 288 288 289 289 289 289 290 291 291 292 292 293 294 294 295 297 298 300 302 308 311 314 314 314 313 312 311 309 308 307 306 306 306 307 308 308 308 308 308 309 309 310 311 312 312 313 313 312 312 311 311 311 311 311 310 310 308 308 308 307 305 303 304 306 304 304 304
285 282 285 283 285 285 286 287 289 287 289 290 288 289 287 289 287 289 290 289 288 287 287 287 287 287 287 287 287 287 287 287 287 287 288 289 289 290 291 292 292 292 293 294 294 295 297 298 299 301 303 310 313 312 310 308 307 306 305 304 303 302 301 302 302 303 302 303 304 304 306 306 308 309 310 311 310 310 310 310 310 311 311 310 309 308 307 307 307 307 306 302 302 303 302 300 300
281 284 284 285 283 283 286 285 289 290 288 290 287 288 289 291 288 288 288 288 287 286 287 287 286 287 287 286 286 286 286 286 286 287 288 288 288 289 290 290 291 292 292 293 293 295 296 297 298 298 299 301 308 309 308 307 305 303 302 302 301 299 298 297 298 297 298 298 299 300 301 303 304 306 307 308 307 307 307 308 308 309 310 310 309 308 307 306 305 305 306 303 300 300 300 298 297
286 284 284 282 285 285 284 287 287 289 289 289 287 290 292 292 290 287 289 288 287 287 287 287 286 286 286 286 286 286 286 286 287 288 288 288 288 288 289 289 290 291 291 292 293 293 294 296 297 297 298 299 302 305 305 303 301 300 299 299 298 297 296 295 295 295 295 295 296 296 297 298 300 302 303 305 305 305 305 305 305 306 307 306 305 304 304 303 303 303 302 303 302 299 297 296 296
285 284 283 283 284 285 286 285 287 286 288 287 289 288 287 289 287 286 287 288 287 286 286 285 285 285 285 285 285 285 285 285 287 287 287 287 287 287 288 289 289 290 290 290 291 292 292 293 295 295 296 298 299 300 301 301 299 298 297 295 294 295 295 294 293 293 293 293 294 294 294 295 296 298 299 301 301 301 302 302 302 303 305 304 303 302 302 302 302 302 301 300 302 301 299 295 296
287 286 285 285 284 285 286 288 287 286 289 285 283 286 288 288 285 286 286 286 285 285 285 285 285 285 285 285 284 285 285 287 287 286 286 286 287 287 287 287 288 287 288 289 289 290 291 292 293 294 295 296 297 297 298 298 298 296 295 293 293 293 292 291 290 290 290 291 291 292 293 293 294 295 297 298 298 299 299 299 299 299 301 302 302 302 301 300 301 301 302 303 299 298 297 294 296
285 286 284 284 285 284 286 286 286 286 288 286 282 286 288 286 284 286 285 284 285 285 285 285 284 284 284 284 284 284 284 285 285 285 286 285 286 286 286 286 287 287 287 288 289 290 290 291 292 293 294 295 296 296 296 295 296 297 296 294 293 290 291 290 290 289 289 288 289 289 290 291 292 292 294 294 295 295 296 296 296 297 297 298 297 297 297 297 298 298 299 299 300 299 295 296 295
284 284 283 284 284 286 284 286 285 287 286 286 284 285 288 282 285 284 285 285 284 285 284 284 284 284 283 283 283 283 283 284 283 284 284 284 285 285 285 285 286 286 286 287 287 288 289 290 290 291 292 293 294 295 295 295 294 294 293 292 292 291 289 289 289 288 288 288 287 288 288 289 289 290 291 292 293 293 294 294 295 295 295 296 296 295 295 295 296 296 297 297 298 297 297 297 295
284 285 284 284 285 285 287 286 285 284 285 283 285 285 285 283 284 283 284 285 284 284 284 284 284 284 284 284 284 284 282 283 283 283 283 284 284 284 284 285 285 285 285 285 286 287 287 288 289 290 291 291 292 293 294 295 294 293 292 291 291 289 289 288 287 286 287 287 287 287 287 288 288 288 289 289 289 290 291 291 292 293 293 294 295 294 294 294 295 295 295 296 296 295 295 295 297
283 283 287 287 286 286 283 284 287 283 284 284 285 282 280 281 281 283 283 283 283 283 282 282 283 283 283 283 283 283 284 283 282 282 282 283 283 283 284 284 284 284 284 285 285 286 286 287 288 289 290 290 290 291 291 292 291 291 290 288 286 285 284 285 284 284 285 285 285 287 287 287 288 288 288 288 288 288 288 289 289 289 290 291 292 292 293 293 293 293 294 295 294 295 295 294 294
284 287 286 288 286 285 284 284 285 281 280 285 282 282 277 281 283 282 282 282 282 283 282 283 282 283 282 282 282 282 282 283 283 283 283 283 283 283 283 283 284 284 284 285 285 285 286 286 287 287 288 288 289 289 289 289 287 287 286 285 285 285 284 284 285 286 286 286 287 286 286 287 287 287 287 287 288 288 288 288 288 288 288 289 289 290 290 290 291 292 293 293 293 294 295 293 292
284 285 284 285 285 285 283 284 285 281 282 283 283 283 279 278 285 282 283 281 281 282 283 282 282 282 282 282 282 282 282 282 282 282 282 282 282 282 282 283 283 283 284 284 285 285 285 285 285 286 286 287 287 287 287 288 286 286 286 285 285 285 285 284 285 285 286 286 286 286 286 286 287 287 287 287 287 287 287 287 287 287 287 288 288 288 288 289 290 291 291 291 292 292 292 292 292
283 285 284 284 285 284 283 284 283 281 283 281 280 283 282 277 282 280 282 282 281 282 282 282 282 282 282 282 282 282 282 282 281 282 282 282 282 282 282 282 283 283 284 283 284 284 285 285 285 285 285 285 286 287 286 287 287 286 286 286 285 285 285 285 286 286 286 286 285 286 286 286 286 287 287 287 287 287 287 287 287 287 287 287 287 287 288 288 288 288 289 289 289 290 290 291 291
285 282 283 282 282 282 282 281 282 281 280 275 280 282 279 278 281 281 282 282 282 282 283 283 282 282 282 282 282 282 281 282 281 281 282 282 282 282 282 282 282 283 283 284 283 284 284 285 285 285 284 285 286 286 286 286 286 286 285 285 285 284 285 285 285 285 285 285 285 285 285 285 286 286 286 287 287 287 287 287 286 286 286 286 286 286 287 287 287 287 288 288 288 288 289 289 289
284 284 285 283 280 279 279 279 278 276 273 278 281 281 283 278 282 283 283 284 284 284 282 282 282 282 282 282 282 282 282 281 281 281 281 281 281 281 282 281 282 282 283 283 283 283 284 284 284 284 284 285 285 286 286 285 286 286 285 285 285 284 285 285 284 284 284 285 284 285 285 285 286 286 286 286 286 287 286 286 286 286 286 286 286 286 285 285 286 286 287 287 287 286 286 287 288
285 285 281 284 282 278 276 269 275 273 272 274 277 279 282 276 279 280 282 281 281 285 283 282 282 282 282 282 281 281 281 281 281 281 281 281 281 281 281 281 281 282 282 283 283 283 284 284 284 283 284 284 285 285 285 285 285 285 285 285 285 285 285 284 284 283 284 284 284 284 285 285 285 286 285 285 285 286 286 285 286 285 285 285 285 285 285 285 286 286 286 285 286 286 286 286 286
283 283 284 278 273 271 273 270 273 273 272 278 279 279 280 280 282 284 282 281 281 281 284 284 283 283 282 282 281 281 281 281 281 281 281 281 280 280 280 281 281 282 282 282 282 283 283 284 284 283 283 284 284 285 285 285 285 285 285 285 285 285 285 285 284 284 284 284 284 284 284 284 284 284 284 284 285 285 285 284 284 284 284 285 285 285 285 285 285 285 285 284 285 285 285 285 284
283 285 280 275 271 266 264 266 263 269 274 276 280 279 279 280 284 283 283 282 281 282 281 283 284 284 283 282 281 281 281 281 281 281 281 280 281 281 281 281 281 281 281 282 283 283 283 283 283 283 283 283 284 284 284 284 284 285 285 285 285 285 285 285 285 284 284 284 284 284 284 283 283 283 283 284 284 284 284 284 284 284 284 284 284 284 284 284 285 284 284 284 284 285 284 285 284
284 283 285 282 273 263 268 265 274 274 273 276 276 275 272 278 283 278 280 280 280 280 280 281 283 283 283 282 281 280 280 280 281 280 280 280 281 281 281 281 281 281 281 282 282 282 283 283 283 283 283 283 283 284 284 284 284 285 285 285 285 285 285 285 285 285 284 284 284 284 283 284 283 283 283 284 284 284 284 283 283 283 283 283 283 283 283 283 284 283 283 283 283 284 283 284 283
281 281 283 280 281 278 277 271 267 265 271 272 272 276 278 283 279 279 279 279 280 280 280 280 282 282 281 280 280 280 281 281 280 280 280 280 280 281 281 281 281 281 281 282 282 282 282 282 283 283 283 283 284 283 283 284 284 284 284 284 285 285 285 285 284 284 284 284 284 283 283 283 283 283 283 283 283 283 283 282 283 282 283 282 282 282 282 282 282 282 282 282 282 283 282 283 283
283 283 279 282 283 281 272 269 270 270 270 274 270 277 281 282 282 278 278 279 280 279 279 280 281 280 280 281 280 280 281 281 280 280 280 280 280 280 281 281 281 281 281 282 282 282 282 283 282 282 282 283 283 283 283 283 283 283 283 284 284 284 284 283 283 283 283 283 283 283 282 282 282 282 282 283 282 282 282 282 281 281 281 281 281 281 281 281 281 281 281 281 281 282 282 282 282
283 279 283 283 284 281 280 275 268 264 270 273 273 277 279 279 279 280 280 279 280 279 279 280 281 280 280 281 281 281 281 281 281 280 280 280 280 281 281 281 281 281 281 281 282 282 282 283 283 283 283 283 283 283 283 283 283 283 283 283 283 283 283 283 283 282 283 282 282 282 282 281 281 281 281 281 281 280 280 280 280 280 280 280 280 280 280 280 280 280 280 280 280 281 280 281 281
283 281 284 285 278 278 279 273 272 269 268 269 271 276 276 280 282 280 281 280 282 279 279 279 279 279 280 281 281 281 281 280 280 280 280 280 280 280 281 281 281 281 282 281 282 282 282 282 283 283 283 283 283 284 284 284 284 283 283 283 283 282 282 282 282 282 281 281 280 280 280 280 280 280 279 279 279 279 279 279 279 279 279 279 279 279 279 279 279 279 279 279 280 280 279 279 280
286 286 285 285 282 276 275 278 274 274 271 267 272 273 276 280 282 283 285 284 284 280 278 279 281 281 281 282 282 281 281 280 280 280 280 280 280 280 281 281 281 281 281 282 282 283 282 283 283 283 283 282 282 283 283 282 282 282 281 281 281 282 281 281 281 280 280 279 279 278 278 278 278 278 277 277 277 277 277 277 277 277 277 277 277 277 278 277 277 277 277 278 278 278 278 278 278
282 282 281 283 277 282 279 277 275 277 265 268 269 274 275 279 281 283 285 284 283 281 281 281 281 281 282 283 282 282 281 280 281 280 280 280 280 280 281 281 282 282 283 283 283 282 282 282 282 282 282 282 282 282 282 281 281 280 280 280 280 280 279 279 279 279 278 278 278 277 277 277 276 276 276 276 276 276 276 276 276 276 275 276 275 276 276 276 276 276 276 276 276 277 276 277 277
284 285 283 285 281 278 277 278 277 271 275 274 268 276 276 282 279 281 280 280 282 282 282 282 282 282 282 283 283 282 281 281 281 281 280 280 280 281 281 281 282 282 282 282 282 282 282 282 282 282 282 282 281 281 281 280 280 279 279 279 279 279 279 278 278 277 277 276 276 275 275 275 274 274 275 274 274 275 274 275 274 274 274 274 274 274 274 274 274 274 274 275 275 275 275 275 275
Wind_Speed
5 5 3 1 3 2 1 6 2 2 4 1 1 1 0 1 2 4 3 3 0 1 2 3 2 1 1 1 1 3 2 3 5 4 2 1 1 3 5 9 4 1 8 6 6 6 9 8 11 11 12 12 12 12 13 13 13 13 12 12 11 11 10 10 9 9 8 8 8 8 9 8 8 8 8 8 8 8 8 9 10 11 12 12 12 13 12 13 13 13 13 14 14 14 13 13 12
2 4 4 1 1 1 0 1 4 3 6 3 1 1 2 3 2 3 1 1 1 0 1 3 2 1 1 2 2 0 1 7 7 1 5 3 3 4 5 9 5 5 7 6 7 6 8 9 9 10 11 12 12 11 12 12 13 13 13 12 12 11 10 10 9 9 9 8 8 8 8 8 7 7 8 8 7 7 8 9 10 11 10 12 12 12 12 12 13 13 13 13 14 14 14 13 12
3 5 1 3 2 4 3 3 1 2 5 3 2 5 2 1 2 2 7 3 2 2 5 1 1 2 1 1 1 2 0 1 3 3 4 3 1 3 1 7 6 5 7 6 7 8 8 8 8 11 10 12 13 11 12 12 13 13 12 13 12 12 11 10 10 9 9 8 8 8 8 7 7 7 7 7 7 7 7 8 9 9 10 10 11 12 12 13 13 13 13 13 13 13 13 12 11
4 5 2 2 1 3 1 4 5 6 5 3 1 2 2 1 2 5 6 8 7 4 1 1 0 1 1 2 1 0 4 2 4 2 1 2 1 5 2 6 5 4 5 7 7 7 8 8 9 10 9 11 13 10 11 11 13 13 12 12 12 11 11 11 11 10 10 9 9 9 8 8 7 7 7 6 6 6 7 8 8 9 10 10 11 10 10 12 12 12 11 11 12 12 12 11 10
3 2 3 3 4 2 3 2 5 3 3 5 4 4 5 6 6 5 4 3 6 4 0 1 1 1 1 0 1 0 0 2 2 2 2 2 2 4 2 5 5 6 6 6 6 7 8 9 8 10 10 10 13 11 11 11 11 13 11 11 11 11 10 11 11 11 11 11 11 10 9 8 9 8 8 7 6 6 6 8 8 9 9 9 9 10 10 11 11 11 11 11 11 11 11 10 10
5 2 4 1 0 3 5 2 4 2 2 6 2 0 2 4 4 1 8 7 1 2 1 1 0 0 0 1 3 0 3 2 0 3 1 1 5 3 3 5 6 7 5 6 5 6 7 9 8 8 11 10 14 11 10 10 12 11 10 11 11 10 10 10 10 11 11 11 11 10 9 9 9 9 8 7 6 6 7 7 8 10 9 8 7 8 9 9 10 10 9 10 10 10 9 9 8
1 3 5 3 3 4 3 4 3 3 0 5 1 2 2 4 5 3 7 2 1 2 1 0 1 1 1 3 2 5 2 0 0 1 4 5 7 1 3 4 6 6 6 7 6 5 7 7 8 9 9 9 11 11 11 10 11 11 9 11 10 10 10 9 9 10 10 11 10 10 10 9 10 10 10 9 8 7 7 8 9 10 9 8 7 8 8 7 7 7 8 10 10 9 8 8 8
2 0 2 2 2 4 3 2 2 3 1 6 2 3 5 6 1 2 2 1 3 1 2 2 1 1 1 2 1 1 3 4 3 5 7 5 2 4 4 5 6 6 6 4 5 4 5 7 7 8 8 9 9 10 11 10 11 10 10 10 10 10 9 9 9 9 9 10 9 9 10 9 10 10 10 10 9 9 8 8 9 10 9 8 8 7 6 6 6 7 7 9 9 8 8 8 7
6 7 1 4 3 4 3 2 2 4 7 3 6 6 6 6 4 0 1 1 1 1 3 1 1 3 1 4 2 4 5 2 4 5 4 3 2 5 4 5 5 6 6 4 3 4 6 5 6 7 6 8 8 9 10 12 10 10 10 10 8 9 9 9 9 8 7 9 8 9 8 8 9 10 10 10 10 9 8 9 10 9 7 7 7 7 9 6 8 8 8 9 8 8 7 7 8
2 2 1 2 4 3 2 0 2 2 2 2 3 4 3 1 1 1 1 1 1 2 1 2 1 1 2 2 4 2 2 5 6 3 7 5 1 3 3 2 2 6 5 5 2 2 2 4 5 5 5 5 7 7 8 10 9 9 10 9 8 7 7 8 8 8 8 8 8 8 8 7 8 9 9 9 9 9 10 10 10 9 8 9 9 8 8 8 8 8 8 8 8 7 7 8 8
1 5 3 4 4 2 3 1 3 4 3 6 6 8 7 3 1 1 1 1 3 1 6 2 1 0 0 2 3 3 6 7 9 6 7 5 2 3 3 3 2 4 5 5 5 2 1 3 4 4 3 4 6 6 7 8 9 10 10 9 9 7 6 7 7 7 6 8 5 7 7 6 8 8 9 8 9 9 10 11 11 10 9 8 7 7 8 9 10 8 8 8 8 7 7 7 8
1 3 3 4 2 3 3 2 1 5 7 3 1 1 1 3 2 1 1 3 3 3 2 2 1 3 1 3 1 2 8 11 6 5 6 5 2 2 3 2 2 3 3 5 4 3 2 2 3 3 3 3 4 5 6 6 8 8 8 8 7 7 6 7 7 6 5 6 5 5 6 6 7 7 8 8 8 8 9 10 10 9 9 8 8 6 6 10 9 9 9 8 7 7 7 7 7
5 1 6 6 1 1 2 0 1 3 4 1 0 1 1 1 0 0 1 2 1 4 2 4 0 1 1 1 2 6 8 8 7 5 6 4 2 2 3 2 3 3 3 2 4 3 2 2 3 4 3 2 2 3 5 5 6 7 8 8 7 6 6 6 7 6 5 5 5 4 3 4 4 5 6 8 8 7 7 7 7 7 7 6 6 5 7 10 9 9 9 8 7 7 7 7 6
4 4 3 1 2 2 3 0 1 2 1 1 3 4 2 0 1 1 4 2 3 1 2 1 1 1 0 2 5 4 3 5 10 7 5 4 3 4 6 5 4 4 3 3 4 2 1 1 2 3 4 3 2 2 3 5 6 6 7 8 7 6 6 6 6 5 4 4 4 3 3 3 4 4 5 5 6 5 5 5 5 7 7 6 4 7 11 11 10 9 8 8 7 7 7 6 6
2 2 6 6 2 0 3 2 3 5 3 0 0 2 4 2 1 3 1 2 1 3 3 2 1 1 3 1 6 2 3 10 10 9 5 5 7 7 7 5 6 5 4 3 1 1 2 1 2 3 4 5 3 3 3 4 6 7 7 7 7 7 6 6 5 4 4 3 2 3 5 5 4 5 5 7 5 5 4 4 4 6 7 6 9 11 11 11 10 9 8 7 7 8 7 6 6
5 5 5 2 0 2 2 2 1 3 2 2 1 2 1 1 1 1 2 1 3 1 3 1 0 1 0 1 1 6 11 11 10 6 5 8 7 6 6 7 6 5 4 6 4 2 1 2 2 3 4 6 5 4 3 4 4 6 7 7 7 7 6 5 5 5 4 3 4 4 5 5 4 3 7 5 6 6 6 4 5 5 5 8 10 10 11 10 10 9 8 8 8 8 8 7 7
2 3 2 3 1 1 1 2 5 2 2 4 4 3 3 1 1 3 1 0 3 3 6 2 1 2 2 2 5 8 10 8 7 8 10 9 8 7 7 7 7 4 5 4 3 4 4 2 3 3 4 6 7 6 5 5 5 6 5 7 7 7 5 5 5 6 5 3 3 4 5 3 3 4 5 3 5 5 7 6 5 4 5 7 10 10 10 9 9 8 8 8 9 8 8 8 8
2 3 4 1 1 2 6 5 9 0 0 2 4 2 2 3 4 1 0 1 2 4 3 8 3 3 3 1 7 7 8 11 11 12 11 9 7 8 7 7 6 6 6 5 5 4 4 3 3 4 5 6 6 6 6 4 4 5 7 5 5 6 6 5 5 5 5 4 5 3 2 3 2 4 4 3 3 5 7 7 4 3 3 7 9 11 10 10 9 8 8 8 9 8 7 3 3
5 2 2 2 5 1 7 4 6 1 2 2 2 2 1 1 0 2 3 5 6 7 2 2 5 5 7 13 14 13 11 14 13 12 12 12 9 10 7 7 8 8 8 8 7 6 6 5 4 5 6 6 6 6 5 5 5 5 4 8 6 5 5 6 4 3 3 5 5 5 4 4 3 1 2 3 3 4 7 10 7 6 7 6 7 8 9 11 10 8 8 8 8 8 4 3 2
1 3 0 2 8 3 7 5 2 7 2 3 4 1 1 2 1 1 1 7 5 4 7 4 2 5 6 9 11 11 11 11 13 12 12 11 9 9 9 10 9 8 8 7 8 7 5 5 6 6 6 6 7 6 5 4 5 6 5 2 5 7 7 5 5 4 3 3 4 3 4 4 4 4 4 7 5 3 3 7 4 2 3 8 10 6 8 10 10 10 8 7 4 2 2 2 2
1 2 2 1 4 0 1 8 7 6 2 1 0 0 3 2 5 0 2 6 3 2 4 2 5 7 8 7 9 10 11 12 13 12 12 11 9 6 7 6 7 8 7 8 5 7 8 7 7 6 7 6 7 6 5 5 5 4 6 5 2 2 7 7 6 6 5 5 4 5 5 5 4 4 3 2 3 4 3 3 5 4 3 3 6 6 5 7 5 4 3 3 2 2 2 2 2
3 0 1 4 3 1 2 6 3 3 2 2 0 3 2 1 2 2 3 2 7 2 4 4 4 7 7 8 8 8 11 12 12 13 12 11 11 12 10 8 6 4 6 7 9 8 8 7 7 6 7 8 7 7 6 4 6 6 6 7 7 3 2 2 4 6 7 8 7 6 4 4 4 4 5 5 5 6 5 3 3 5 6 5 2 3 3 5 4 4 3 3 2 1 2 1 2
1 1 1 4 3 1 1 2 4 3 1 1 2 2 1 1 2 1 3 3 2 5 3 6 7 5 5 5 7 10 11 12 11 12 11 12 11 10 10 8 9 10 8 8 8 8 8 8 6 7 7 7 7 6 6 5 5 5 5 6 8 8 6 6 5 2 2 4 5 5 5 6 6 6 4 4 5 2 1 1 4 4 3 5 7 4 5 5 4 4 4 3 2 2 2 2 2
3 1 0 1 5 4 3 1 4 2 3 4 2 2 2 2 7 1 2 5 5 6 6 7 7 7 7 11 10 10 10 10 10 9 8 8 8 9 8 9 8 6 6 10 9 9 11 11 9 5 6 6 6 5 6 6 5 5 5 4 2 1 5 3 4 1 3 5 6 7 4 5 7 6 6 6 5 4 6 4 1 2 3 2 1 2 3 3 3 2 5 4 3 2 2 2 2
2 2 1 1 1 6 5 3 4 3 7 4 1 3 4 4 1 1 3 6 5 5 6 7 7 9 11 12 12 10 11 11 11 9 7 7 7 7 6 5 7 7 11 12 10 9 10 10 8 5 4 6 4 5 5 4 4 5 4 5 5 4 3 5 3 2 4 2 1 2 2 3 3 6 7 7 5 5 4 4 4 3 1 0 2 2 3 5 4 4 4 4 3 2 2 2 1
2 2 1 0 3 4 4 5 6 6 3 3 0 6 2 3 2 3 3 5 4 4 9 8 8 13 11 10 10 10 10 11 9 11 11 8 7 11 13 11 9 10 10 10 10 10 10 11 9 5 2 2 2 4 3 3 4 3 5 4 4 8 5 4 3 2 2 1 1 3 3 3 5 6 6 6 5 6 6 4 5 5 6 5 4 5 6 6 5 3 3 4 4 3 2 1 0
3 1 2 2 3 4 4 3 2 1 2 3 2 5 0 1 1 0 3 5 4 8 9 8 9 10 8 8 8 9 11 12 11 7 8 9 10 11 10 10 11 10 10 12 10 10 9 10 11 7 2 2 2 1 4 4 3 3 3 3 3 0 2 1 3 3 3 3 3 2 2 3 2 2 4 5 4 2 3 5 4 3 4 2 2 3 3 3 2 2 4 5 3 3 2 1 1
3 0 1 4 6 4 6 3 7 1 2 3 5 3 0 2 2 1 5 5 4 9 8 9 9 8 7 9 10 8 9 8 8 9 14 14 10 10 11 10 11 10 10 11 9 8 9 10 10 10 4 2 3 3 4 5 4 4 3 4 3 3 5 3 3 3 4 4 0 1 1 1 2 3 4 4 5 5 4 2 3 3 2 3 3 1 1 2 2 2 3 3 3 3 3 2 1
0 1 5 5 8 6 4 2 2 0 1 2 5 1 1 3 3 1 3 4 5 9 9 8 9 7 7 7 7 8 9 8 8 9 10 7 7 8 9 9 9 9 7 8 9 9 10 9 9 9 8 5 5 5 5 6 6 4 5 3 3 5 9 9 10 10 10 8 9 10 9 8 6 4 1 3 3 3 3 2 0 1 2 2 2 4 4 3 3 3 3 2 2 2 2 2 1
0 3 1 7 7 6 3 1 2 0 1 1 1 4 2 2 1 5 8 2 5 12 9 7 6 6 6 7 6 7 8 9 10 9 8 8 8 8 9 10 10 8 7 7 8 11 8 6 6 7 8 9 9 8 8 9 9 10 10 11 11 12 10 9 9 8 9 9 9 11 9 9 7 7 7 7 7 4 3 3 5 5 4 2 3 3 3 2 2 2 2 2 2 2 2 1 1
1 0 3 0 5 4 2 1 5 0 1 1 0 3 6 2 2 7 8 2 4 6 5 5 5 6 6 6 6 7 7 7 8 9 10 9 8 7 9 9 10 10 7 9 11 10 10 9 7 7 9 10 10 10 11 11 10 10 10 11 11 10 11 9 8 9 10 9 9 10 9 9 8 8 7 7 7 7 7 6 7 6 5 5 5 6 5 3 2 1 1 1 1 1 1 1 0
3 2 4 3 1 5 9 2 2 1 2 4 2 1 7 4 2 9 7 5 8 9 5 4 5 6 6 6 7 7 6 7 8 10 10 9 9 9 9 11 10 10 11 9 8 8 10 12 11 11 11 12 12 12 12 12 13 12 11 12 11 11 11 11 9 9 9 8 9 9 11 12 10 10 9 8 8 7 6 7 5 5 5 5 6 5 6 6 5 5 5 5 5 3 4 3 3
5 2 4 4 0 5 7 1 1 1 1 5 2 4 5 0 4 6 6 6 8 9 6 5 6 6 6 7 6 6 7 9 9 11 12 10 9 9 8 9 10 9 9 10 10 9 10 12 11 13 12 11 13 13 14 13 12 12 13 12 11 12 11 8 9 8 9 10 10 11 10 10 11 10 11 10 8 8 8 8 6 6 6 6 5 5 5 4 5 5 5 4 3 3 4 4 3
3 3 4 3 2 2 2 5 1 4 1 2 5 0 5 2 2 5 7 4 7 8 5 5 5 5 6 6 7 7 8 8 10 11 12 10 8 10 8 8 9 9 8 9 9 8 8 7 8 9 9 10 11 11 11 11 12 12 11 11 13 13 11 10 9 9 11 11 11 10 8 9 11 11 11 9 9 10 7 8 8 8 6 6 6 6 6 3 5 4 4 3 3 3 2 2 2
2 2 0 5 1 4 7 1 1 3 3 1 1 1 8 9 5 7 6 4 8 7 4 4 5 6 6 6 6 7 7 8 8 8 9 9 9 9 8 8 8 9 8 9 9 8 7 7 7 9 9 8 10 10 11 11 12 11 10 12 13 12 10 11 9 10 10 10 10 10 10 11 11 10 11 11 11 9 9 9 8 8 6 6 7 5 4 4 6 5 4 3 3 3 2 1 1
4 5 4 3 3 3 4 6 2 1 2 3 4 8 10 11 1 6 5 5 7 5 4 5 6 6 6 6 6 6 6 6 5 6 7 7 7 8 8 7 7 7 8 9 10 10 10 9 7 9 9 7 6 7 9 9 10 10 10 10 13 11 10 10 11 11 10 11 11 11 11 11 11 10 11 10 10 9 10 9 10 10 8 8 8 9 8 7 7 6 6 5 4 3 4 2 2
3 3 3 5 5 6 3 3 4 1 1 7 8 6 6 9 4 4 3 3 6 6 6 5 5 5 5 5 5 5 6 5 5 5 6 8 8 8 7 6 7 7 11 10 10 11 11 8 9 11 7 6 7 7 8 8 9 8 11 12 11 9 9 8 11 11 11 10 9 10 11 10 10 10 9 10 10 10 9 9 9 10 9 8 10 10 8 7 5 4 3 4 4 5 5 4 3
2 2 3 6 4 9 3 2 2 3 2 3 2 1 7 8 4 5 4 4 5 3 4 5 5 4 4 5 5 5 3 2 6 8 9 8 8 9 8 8 10 12 11 10 11 9 8 9 10 6 5 9 9 8 7 10 8 9 10 8 9 9 9 9 10 10 9 9 11 11 10 9 10 10 9 9 10 9 9 9 9 8 7 8 8 7 6 5 7 7 4 2 2 4 3 2 4
2 4 3 2 8 4 7 1 2 1 4 7 3 1 8 3 3 4 5 5 3 3 3 2 4 5 4 4 4 4 5 5 7 7 8 7 9 9 7 7 8 7 7 8 7 9 10 10 8 7 8 8 8 7 9 9 7 7 10 8 8 10 10 9 10 9 9 10 11 11 11 11 11 10 10 10 9 8 8 8 7 8 9 7 7 8 8 9 7 7 7 6 4 4 2 3 6
5 2 2 9 3 1 5 1 2 1 1 2 0 4 7 3 3 5 3 2 3 4 5 5 4 4 4 4 3 3 5 5 7 7 7 8 7 7 8 8 8 6 6 7 9 10 8 8 8 8 7 7 7 8 10 9 12 11 11 11 10 10 8 7 9 9 9 11 13 10 11 10 11 11 11 11 10 10 10 10 9 9 9 8 7 8 9 9 9 8 8 8 5 6 6 5 4
3 5 6 5 3 5 8 4 1 0 1 1 1 4 8 1 2 1 2 3 4 3 5 5 4 3 2 2 4 4 4 4 4 6 7 7 8 8 7 7 6 6 7 8 8 8 6 8 7 7 7 8 7 7 7 6 8 9 7 8 7 8 8 8 9 11 10 9 9 12 11 10 10 10 10 11 10 10 10 9 9 9 9 8 7 8 8 7 7 7 7 6 7 5 5 5 5
2 7 12 9 7 8 3 2 1 5 2 2 1 2 4 2 4 5 3 1 2 2 4 3 2 3 3 4 4 3 3 3 2 3 4 5 5 6 7 7 6 6 7 7 6 7 8 7 8 8 7 7 7 8 7 6 7 7 6 8 9 9 10 10 10 8 9 10 10 6 9 10 10 10 10 10 10 10 10 10 9 10 9 9 8 8 7 8 9 9 8 6 7 7 3 5 6
1 6 10 12 7 3 3 2 4 1 1 1 2 3 4 6 3 6 5 3 2 1 1 1 1 1 2 3 2 2 2 3 4 4 4 5 6 6 6 6 6 7 7 5 6 8 9 8 7 7 7 6 6 7 7 8 11 10 12 12 10 9 10 7 6 6 7 6 7 9 8 10 10 10 11 10 10 10 10 9 9 9 9 8 8 8 9 9 8 8 8 8 7 6 6 7 7
4 1 4 4 5 6 5 6 6 2 1 2 1 2 4 4 8 4 5 5 2 2 4 2 2 3 2 2 2 2 2 1 2 3 3 3 4 4 4 5 5 6 5 6 7 8 11 10 8 8 6 7 6 7 10 8 11 10 11 11 9 9 9 8 7 7 6 6 8 9 8 8 9 10 10 10 10 10 10 10 9 9 9 9 8 8 8 7 7 8 8 8 7 8 8 7 6
3 0 4 6 7 6 6 6 4 1 0 5 3 1 1 4 6 1 3 2 3 7 7 6 6 4 4 3 2 2 1 0 1 3 3 2 2 3 3 4 5 5 5 6 6 7 8 9 9 8 8 7 7 9 10 10 10 9 9 8 11 8 8 7 6 6 7 6 9 8 8 7 8 9 9 10 10 10 9 9 9 10 10 9 8 8 8 8 9 9 9 9 9 8 7 6 6
1 6 7 7 8 7 5 5 5 1 2 5 6 4 3 6 6 1 1 3 7 9 10 10 8 7 6 5 4 3 1 0 1 1 1 1 1 2 3 2 4 4 4 5 6 6 8 8 9 10 10 7 6 8 9 11 10 8 10 9 12 8 7 7 6 7 7 6 9 8 7 7 7 7 8 9 9 9 9 9 9 10 9 9 8 9 9 9 9 8 8 8 8 9 7 7 7
7 4 8 6 8 5 3 6 3 3 1 7 5 2 4 3 5 7 6 7 6 7 3 4 5 6 6 6 6 5 5 3 3 2 1 1 0 0 2 3 3 4 4 5 6 7 7 8 8 12 9 7 7 8 10 11 9 8 10 10 10 10 8 7 8 8 6 7 8 7 7 6 6 7 7 9 9 9 8 8 8 8 8 8 8 9 9 8 7 7 6 7 9 9 7 7 7
5 2 4 5 3 5 4 3 4 1 6 5 1 3 1 6 6 5 6 1 2 10 12 13 11 11 9 8 6 6 5 5 4 3 3 3 4 4 3 4 4 4 5 6 7 6 7 8 8 13 10 9 8 7 9 9 9 10 10 10 10 8 8 7 9 9 7 8 6 6 5 6 7 7 8 8 9 10 8 9 8 8 8 9 9 7 7 7 6 6 7 7 7 7 7 6 6
2 6 7 6 3 3 2 2 2 5 5 0 2 2 1 7 8 1 2 6 3 4 6 15 15 12 10 8 8 7 5 5 5 4 4 4 5 5 5 5 5 6 6 6 7 7 7 8 9 12 10 8 8 7 9 9 9 9 9 9 8 7 8 8 8 8 6 7 6 6 7 7 6 8 8 8 9 10 8 9 9 9 8 8 8 8 8 9 8 7 7 6 6 8 7 6 6
4 8 7 6 1 1 2 5 1 6 4 4 1 1 2 3 9 5 8 6 3 3 4 4 10 12 13 10 8 7 6 6 6 5 5 5 5 4 4 5 5 5 6 7 6 7 7 8 8 12 10 7 7 8 8 10 10 9 8 8 7 7 8 7 7 7 6 6 5 7 7 6 6 7 7 8 7 7 7 7 7 8 7 7 8 7 8 7 7 7 7 7 7 6 6 6 5
8 1 7 7 8 7 4 5 5 5 4 1 4 1 6 5 5 3 2 3 5 4 4 4 4 4 5 5 6 6 6 6 6 6 6 6 6 5 5 5 5 6 6 6 7 7 7 8 8 11 11 7 8 8 9 10 9 9 8 7 7 6 7 6 6 6 6 7 6 7 7 6 6 6 6 5 6 7 7 6 7 7 7 7 7 7 7 7 7 6 6 6 6 6 6 6 6
0 2 4 5 7 5 2 4 3 1 0 1 1 5 4 5 1 3 2 3 2 1 3 5 7 6 7 7 8 8 8 8 7 7 7 6 6 5 5 5 5 6 7 6 7 7 7 8 8 9 10 8 8 8 8 8 8 7 8 9 8 7 6 6 6 6 6 6 6 6 6 6 6 5 5 6 6 6 7 7 7 8 7 7 8 8 7 7 7 6 6 6 7 5 7 8 6
4 5 5 6 1 7 6 2 1 1 3 8 3 5 4 3 1 1 3 1 2 1 3 6 8 8 8 9 9 9 9 8 8 8 7 7 6 6 6 6 6 6 6 7 7 7 9 9 9 9 8 7 7 7 7 7 7 8 7 8 8 8 8 8 6 7 6 5 5 5 5 5 6 6 6 5 6 6 7 6 6 7 7 7 7 7 7 7 6 6 6 7 7 7 6 7 6
9 2 8 1 1 4 4 4 1 2 4 6 4 8 3 5 6 2 1 3 5 5 5 6 6 8 10 10 10 11 10 9 8 7 6 7 6 7 6 6 6 7 7 7 7 6 6 7 8 10 8 9 6 6 7 7 8 8 8 8 7 7 7 7 6 6 5 6 5 5 5 6 7 6 5 5 5 6 6 6 6 6 6 7 7 7 7 7 7 6 6 6 6 6 6 5 6
4 3 2 5 2 1 1 3 3 1 4 5 3 2 3 8 6 3 7 8 11 9 7 7 10 11 12 12 12 10 8 7 8 9 8 8 8 8 8 8 7 6 6 7 7 6 6 6 6 7 8 7 7 6 6 6 6 6 6 7 7 7 6 6 6 6 5 7 7 6 6 6 6 6 5 6 6 6 6 6 6 6 6 6 6 6 6 6 6 5 6 5 6 6 6 6 6
1 2 2 1 1 1 4 6 3 5 4 2 5 4 6 8 7 14 12 15 12 10 9 13 15 15 14 14 13 13 12 10 9 10 10 9 9 9 9 9 9 9 8 7 7 6 7 6 7 7 6 6 7 7 7 7 6 7 7 7 7 6 5 6 5 6 7 7 6 6 5 5 6 5 5 5 5 5 6 5 5 5 6 6 7 6 7 7 6 6 6 6 7 7 7 7 7
1 2 1 0 1 2 3 1 3 3 4 4 3 8 2 5 5 10 11 11 14 17 17 13 12 14 14 14 14 13 11 11 12 11 11 10 9 9 8 7 6 6 5 6 6 7 7 6 7 7 9 8 7 7 7 7 6 6 7 7 6 6 6 5 6 7 7 6 5 5 5 4 4 6 5 5 6 6 6 6 6 6 7 7 7 7 6 6 6 6 6 6 7 7 7 7 7
5 10 10 11 7 3 2 8 3 1 2 5 3 12 0 3 2 4 2 3 7 9 10 12 14 14 15 13 12 12 12 12 12 11 9 9 9 9 7 6 5 6 6 7 6 6 7 7 7 7 7 7 8 7 8 6 5 6 7 7 6 5 5 6 7 6 6 6 6 6 5 5 6 5 5 5 6 5 5 6 6 6 6 6 6 7 7 6 7 7 7 5 6 7 8 8 7
Wind_Direction
2 348 334 102 68 100 59 1 155 340 58 44 329 19 158 24 275 336 252 332 341 239 199 310 206 202 262 217 196 202 211 110 208 105 74 239 195 226 205 201 234 212 175 171 182 179 185 183 173 173 168 165 165 162 159 153 150 148 145 143 141 141 139 135 136 137 142 144 135 134 127 128 126 124 120 111 103 96 95 101 107 104 105 102 95 91 86 80 76 72 68 64 57 52 48 47 46
45 355 46 16 31 53 252 172 95 349 46 78 212 107 252 292 345 216 261 177 196 246 238 231 287 280 41 55 176 123 249 233 177 214 275 230 296 262 210 199 203 187 169 163 174 181 181 183 177 173 168 165 165 162 155 154 155 151 149 148 146 146 144 140 140 143 145 146 143 135 128 129 124 123 123 114 104 100 98 101 108 110 105 100 96 93 86 78 71 67 64 61 57 51 45 40 38
14 19 7 35 34 67 97 24 234 11 89 79 277 207 341 271 219 253 229 212 220 275 316 300 164 293 61 316 353 125 84 273 295 271 244 300 344 14 192 192 194 190 169 163 168 177 180 182 177 174 172 166 167 163 158 157 159 155 156 154 152 151 148 146 146 146 147 151 140 137 134 132 125 127 128 117 106 104 103 102 108 112 107 96 92 84 81 77 70 64 60 57 56 52 47 41 35
91 29 113 62 240 26 51 31 82 124 111 176 322 285 215 187 253 231 254 254 268 308 288 205 129 215 139 12 266 50 290 337 195 160 295 31 310 308 318 176 179 170 159 170 172 176 180 181 177 174 175 168 169 162 160 161 162 159 160 157 156 156 152 150 148 155 152 148 147 143 142 137 136 137 132 123 111 107 105 102 105 109 111 105 94 87 84 79 71 64 58 56 55 53 48 42 35
62 20 66 112 113 357 102 94 126 98 124 205 115 267 259 221 261 285 277 274 287 202 142 165 100 283 187 161 154 119 79 253 317 182 264 257 293 275 223 169 152 160 165 171 169 176 182 178 180 175 174 171 174 162 163 164 164 163 162 160 159 159 157 151 156 158 158 156 153 151 147 146 144 138 133 127 119 106 106 106 109 105 101 101 102 102 91 80 74 65 60 57 55 52 49 45 38
67 26 10 87 62 160 63 71 62 72 222 156 103 279 231 229 218 266 293 309 267 205 212 81 69 274 338 265 190 243 209 36 214 271 192 241 325 337 177 158 150 163 160 170 169 175 183 180 181 180 177 174 177 166 164 166 170 164 162 162 161 161 161 159 160 166 162 158 156 150 153 149 146 140 136 131 129 122 111 111 113 113 109 104 101 93 83 78 79 72 65 60 56 53 49 50 48
298 51 358 34 50 46 158 114 143 166 180 167 224 245 260 282 222 344 320 19 244 112 340 18 41 85 64 319 328 242 208 332 56 262 174 310 318 214 161 145 152 157 163 171 176 171 181 180 187 185 179 178 182 168 163 169 173 167 167 169 164 164 166 165 167 171 165 161 157 153 155 158 158 152 145 143 140 136 132 124 117 114 112 114 108 87 74 63 64 70 66 60 55 49 48 47 52
89 121 323 100 354 45 46 158 160 183 33 183 269 250 273 256 203 150 288 78 345 71 350 258 285 115 261 49 41 284 330 205 262 308 291 297 295 145 161 152 155 162 167 169 177 176 178 184 190 189 184 180 181 167 165 169 175 170 170 175 175 166 171 169 175 179 171 164 163 160 161 166 162 159 150 150 151 146 141 130 122 119 125 115 91 81 73 71 57 72 68 68 63 57 50 47 49
9 88 261 71 48 23 66 64 276 250 283 271 267 227 279 273 247 350 12 261 300 289 313 318 281 42 253 340 191 276 296 263 296 295 321 324 158 145 149 157 162 160 169 168 170 175 188 192 194 195 190 185 184 168 173 175 176 174 175 180 177 176 179 175 184 186 174 173 174 166 176 170 168 161 158 156 154 146 138 131 129 129 125 116 101 79 52 32 75 88 79 69 63 57 52 51 50
51 29 304 108 137 45 10 283 93 177 243 242 265 275 244 255 278 218 243 37 285 285 241 287 263 7 328 317 322 20 3 348 313 18 18 4 5 110 139 116 123 161 156 174 175 174 181 198 199 205 195 195 188 175 176 183 183 178 175 187 174 178 184 180 188 192 185 183 184 178 184 174 162 168 163 158 155 147 144 142 142 140 130 106 94 84 70 71 98 100 88 78 69 60 55 53 53
10 17 135 76 32 103 129 237 269 315 274 314 288 247 240 207 235 280 173 259 342 205 313 156 89 261 74 278 224 257 320 2 32 11 349 349 4 101 113 55 91 155 165 175 184 170 167 195 203 217 207 207 197 179 179 187 192 180 179 182 181 180 181 174 189 199 185 192 195 186 196 173 165 172 165 159 153 154 150 148 147 136 120 117 106 94 89 100 110 105 91 81 74 66 56 57 57
346 25 5 101 125 147 217 149 278 284 302 328 112 324 191 149 160 11 350 9 334 320 214 154 344 152 30 329 6 327 327 26 3 308 321 336 37 21 113 53 90 146 156 173 165 170 182 196 194 211 229 227 220 191 178 190 199 185 179 181 186 181 177 178 190 201 190 183 195 198 207 178 169 172 173 166 159 159 161 155 149 142 135 130 119 109 100 116 116 106 97 88 79 68 64 61 61
102 93 74 76 166 169 146 126 247 295 329 314 343 72 129 122 239 179 236 199 293 7 23 210 208 99 313 314 260 319 24 348 347 327 331 344 352 348 59 54 55 102 128 93 168 180 162 206 205 201 196 214 242 220 185 186 201 196 181 181 188 183 180 184 193 201 197 182 190 190 204 162 185 170 175 172 163 165 166 155 149 141 129 118 111 100 104 123 111 102 98 92 84 76 69 68 65
113 181 121 144 22 124 147 309 347 128 325 216 263 288 278 180 224 191 130 48 321 52 247 180 124 156 267 25 322 346 299 323 337 345 330 353 2 31 37 20 34 45 60 141 198 180 165 205 220 216 206 197 200 210 217 190 193 205 192 179 175 180 180 191 200 196 194 188 189 176 139 141 160 168 162 167 162 159 154 163 135 133 126 120 95 93 111 114 110 107 104 99 89 81 76 71 65
113 167 84 112 46 67 245 96 182 134 139 160 277 353 352 270 101 108 150 132 310 214 304 195 223 96 242 71 293 293 319 334 328 329 349 18 35 40 35 37 33 18 19 33 64 128 217 255 213 207 216 212 191 188 203 198 198 190 207 190 175 171 182 190 194 184 176 173 167 156 139 135 149 148 159 159 167 147 144 148 144 133 137 112 106 112 116 115 113 112 108 100 92 84 77 71 67
137 91 79 106 178 133 215 156 246 98 196 205 303 175 37 352 110 29 300 172 276 303 22 264 23 250 125 155 327 345 319 320 315 328 14 31 9 41 32 30 23 39 23 13 13 3 310 232 232 217 210 212 204 184 193 177 186 195 181 203 193 177 179 187 175 169 168 139 124 143 137 130 144 141 148 151 164 154 145 155 152 142 126 124 123 118 118 117 116 115 108 99 91 79 70 63 65
72 81 54 34 146 199 211 161 149 162 251 274 298 46 57 283 317 238 227 39 274 289 1 253 223 8 211 55 351 320 329 323 350 24 29 20 10 7 4 15 356 14 19 19 353 343 340 280 236 225 218 215 209 195 191 186 173 185 188 173 185 174 179 185 181 161 150 126 115 123 134 153 163 150 164 157 168 159 154 151 151 169 152 126 127 124 119 118 115 111 103 98 89 81 68 50 40
53 57 113 46 199 125 197 169 190 207 93 293 336 95 69 349 341 321 153 354 46 305 310 297 315 266 46 18 22 4 355 23 17 41 27 27 13 7 3 358 5 352 343 344 349 339 316 303 249 233 227 223 212 206 208 190 167 177 192 180 184 185 177 182 192 191 161 156 130 148 167 158 191 169 166 150 183 174 154 156 159 134 128 127 126 127 126 119 111 107 103 96 91 86 75 66 28
82 143 76 258 187 247 153 200 201 133 284 230 263 0 145 245 143 313 4 301 355 338 309 344 325 322 18 18 1 13 12 32 31 42 42 32 20 15 359 343 350 350 349 345 329 337 315 290 257 230 223 218 219 209 200 191 176 153 216 190 194 203 195 186 191 176 234 171 175 181 175 171 172 183 160 158 162 193 155 155 168 152 125 125 128 121 129 122 116 109 105 100 96 89 81 79 66
228 112 178 257 207 246 221 183 200 202 150 286 317 59 98 250 132 311 345 282 345 314 304 340 4 294 31 354 6 6 24 33 38 37 38 32 24 13 2 354 343 344 333 329 314 315 314 290 262 242 225 208 210 217 202 189 189 189 197 228 214 183 187 193 188 184 221 194 177 192 181 166 167 176 149 164 158 178 151 147 137 106 148 145 136 132 123 113 115 114 110 102 91 76 88 81 85
227 79 159 222 182 111 207 191 235 216 175 246 163 335 336 278 209 79 191 335 311 260 243 216 314 333 357 7 9 11 21 28 29 33 30 24 19 21 8 349 335 324 322 311 309 321 323 316 288 250 229 211 202 210 202 196 185 179 205 216 163 217 184 183 189 200 205 215 188 195 199 171 169 162 173 181 152 134 127 189 147 154 150 104 125 145 149 131 123 118 98 85 106 106 97 88 103
117 193 200 157 142 296 234 201 201 171 209 158 1 341 273 148 88 167 159 238 281 351 359 27 40 47 35 9 12 20 25 29 26 28 26 21 10 1 353 344 334 304 321 335 334 322 321 315 303 275 235 219 205 203 208 187 173 192 192 213 241 211 124 214 233 210 198 186 188 192 171 163 165 176 185 182 177 149 157 174 197 157 154 161 139 162 167 124 134 136 112 107 124 95 89 99 81
224 319 239 221 201 233 256 176 219 150 108 132 292 238 9 62 281 214 158 201 342 16 26 70 63 55 61 57 35 27 25 26 24 22 15 15 6 1 356 346 346 342 342 334 327 326 323 321 309 295 248 214 210 193 194 194 193 176 168 183 202 223 234 238 225 182 207 202 198 178 180 196 174 164 166 174 160 129 38 166 187 184 192 189 179 178 160 155 157 121 125 123 113 117 100 92 83
109 218 356 314 178 221 191 271 120 183 138 247 199 24 294 334 320 188 80 23 56 41 48 61 66 62 47 48 34 41 34 29 23 18 16 10 2 353 348 346 339 322 331 343 343 338 339 329 320 297 262 226 198 198 191 194 188 171 162 147 182 155 159 205 274 194 197 209 201 193 220 216 178 164 167 173 187 173 171 163 200 239 138 117 47 262 131 95 90 138 126 129 131 126 129 90 88
116 295 216 232 156 246 289 279 279 243 248 276 11 280 249 172 217 126 58 51 32 41 42 46 45 49 43 45 33 30 32 24 20 8 13 12 0 345 353 347 351 352 1 352 342 339 338 331 323 301 266 236 217 181 201 172 166 169 164 166 174 243 253 240 205 177 180 163 72 283 201 221 186 165 173 181 168 182 156 152 157 141 69 12 178 147 116 128 171 169 145 131 125 117 103 117 93
168 210 151 316 270 301 277 308 268 243 262 150 87 253 317 252 160 54 38 58 64 56 52 34 41 48 41 39 34 33 33 29 15 16 7 351 355 5 8 360 352 6 354 348 346 343 337 332 341 329 265 244 276 169 181 149 149 159 157 173 205 197 230 105 82 84 45 299 222 143 150 203 223 188 189 181 175 175 172 155 162 171 164 170 177 175 178 172 162 161 140 122 130 141 140 114 83
155 189 200 241 276 348 292 204 275 95 251 170 228 296 25 330 75 283 89 10 92 55 51 36 49 52 44 44 39 33 35 26 19 354 9 11 10 13 356 355 2 350 352 5 355 344 338 341 351 350 317 140 344 89 142 136 111 115 83 81 72 190 275 286 60 66 59 65 37 29 242 164 182 197 184 188 198 134 156 175 189 152 158 139 176 196 151 123 140 153 153 141 157 151 128 120 159
48 165 293 294 318 254 254 288 286 269 292 170 191 246 66 315 74 77 346 7 69 79 45 38 40 42 33 35 40 31 38 25 15 16 19 9 6 355 353 359 347 343 358 353 352 338 346 351 347 5 354 82 91 40 97 98 85 104 94 96 81 78 75 68 14 7 35 17 0 177 153 186 171 156 154 212 215 133 144 197 167 172 147 127 144 76 32 67 106 138 106 103 118 132 129 147 143
174 55 328 299 344 344 348 348 337 295 272 159 160 308 27 351 111 305 59 51 71 71 54 34 34 32 31 30 38 37 31 21 21 28 18 6 351 353 352 352 347 342 343 339 344 357 1 359 1 2 15 31 67 68 65 86 93 71 76 67 78 27 26 24 34 29 30 27 28 22 18 12 2 352 330 154 151 116 131 128 93 60 91 102 102 121 134 138 148 117 88 108 117 123 131 142 125
186 30 92 325 356 335 332 343 342 14 278 71 265 313 295 99 147 321 337 230 38 51 32 25 23 22 25 30 35 37 28 24 25 23 10 1 358 355 355 349 350 351 339 340 346 13 359 16 11 23 24 34 31 28 37 38 38 41 42 44 46 49 51 50 45 44 40 37 43 37 31 30 30 34 35 23 14 8 30 42 23 21 18 40 108 121 149 194 133 128 115 147 157 165 178 141 182
251 243 65 325 1 284 284 61 310 89 354 347 41 229 278 257 256 340 342 282 124 78 43 31 20 22 28 27 29 33 31 28 24 16 11 4 360 356 353 349 355 353 345 353 360 350 10 16 20 47 43 51 52 53 58 59 62 59 57 56 54 53 54 49 43 45 50 40 43 47 41 38 36 43 43 52 47 52 49 44 34 28 35 44 30 16 7 10 9 50 66 95 97 147 126 123 71
20 22 299 322 136 276 302 348 14 150 5 32 107 102 257 165 235 353 344 40 95 88 66 40 28 32 29 25 30 26 23 19 20 19 12 2 3 356 356 355 351 355 3 353 352 351 12 23 29 53 50 63 69 71 72 70 69 71 70 65 57 53 58 49 43 43 45 45 47 47 38 45 36 44 39 40 60 59 68 63 55 54 60 63 52 41 41 33 25 31 28 12 354 357 356 9 12
357 138 273 278 41 265 325 15 340 307 68 11 121 238 325 61 225 335 10 53 79 97 64 39 39 36 34 33 31 25 17 14 16 13 6 -0 357 356 354 354 358 355 358 4 4 3 14 18 25 42 44 57 70 75 75 75 77 69 66 66 64 59 56 52 49 44 43 43 40 48 36 45 43 45 48 49 52 52 50 56 45 48 57 70 75 78 72 68 59 50 42 47 63 17 26 9 9
290 24 217 209 205 275 285 307 36 4 98 187 9 258 240 187 162 10 15 42 92 82 72 54 51 44 41 39 36 29 29 20 17 3 356 356 349 353 354 353 355 359 6 11 10 15 21 13 23 32 25 44 63 68 70 72 69 70 67 66 61 57 55 51 49 45 45 41 37 39 30 42 42 39 44 46 58 56 48 55 51 50 57 70 71 55 46 33 83 87 88 69 106 112 86 49 6
201 148 263 290 262 219 251 320 243 5 24 60 337 282 272 270 106 29 11 33 86 82 81 66 51 43 37 40 36 32 30 29 11 358 350 349 354 353 355 352 356 5 12 13 17 19 24 22 25 30 28 22 54 63 65 71 70 68 65 64 60 57 53 49 45 50 44 42 40 33 30 38 35 34 42 43 47 48 47 43 46 38 46 52 60 70 57 24 48 39 43 32 15 31 53 37 295
203 173 183 170 216 231 205 236 278 129 275 302 290 259 272 278 290 28 25 34 81 93 75 59 47 43 41 39 33 35 29 27 358 350 353 357 358 355 354 351 358 12 17 13 20 25 24 27 28 38 28 21 34 60 69 65 63 54 54 55 54 42 41 45 41 46 41 44 33 33 36 39 32 29 29 35 47 44 44 41 39 36 37 52 57 47 37 32 16 40 44 22 18 54 55 18 287
110 104 121 202 220 278 281 260 255 324 37 235 239 258 259 271 335 325 341 27 55 48 50 48 42 42 41 34 34 21 32 23 326 346 5 3 1 -0 355 359 5 20 24 14 24 26 25 17 38 43 20 27 57 58 54 53 59 65 59 58 66 48 46 47 49 43 44 41 32 39 41 39 38 37 31 37 43 47 46 41 41 36 32 41 51 46 35 28 9 30 56 30 27 52 32 356 329
168 161 183 259 174 253 237 229 14 309 158 300 63 320 267 262 341 349 341 55 37 18 55 51 50 50 43 40 30 15 346 316 3 16 8 7 5 3 5 12 10 23 6 13 26 22 22 24 41 36 17 44 47 51 76 71 69 72 84 71 76 63 44 43 48 40 37 35 35 35 39 41 43 44 39 43 45 47 53 50 48 50 44 48 55 52 45 35 27 28 11 13 11 42 60 327 313
109 196 207 277 256 243 283 278 356 298 138 262 42 277 265 274 17 26 44 67 63 39 62 61 75 52 43 36 25 16 18 15 19 16 8 7 2 7 13 13 19 18 9 20 12 31 28 29 26 31 33 47 50 61 68 76 69 69 82 84 81 82 61 60 66 57 46 49 44 38 36 37 40 40 36 36 43 35 43 50 45 45 44 42 52 50 40 38 30 27 23 26 5 35 49 11 2
186 134 145 234 193 144 289 283 4 13 133 274 320 327 280 68 73 50 24 78 103 64 71 64 58 72 64 52 41 24 19 14 21 8 4 0 6 7 12 16 5 7 17 20 24 31 31 27 25 32 38 44 51 52 78 82 85 86 79 84 77 74 79 74 74 60 50 45 43 37 40 39 39 45 39 40 44 41 37 40 39 40 41 33 42 49 41 38 28 26 23 27 20 29 17 16 29
252 195 212 233 184 222 192 238 268 354 55 69 256 319 293 79 212 274 44 108 87 26 55 55 40 56 60 112 68 46 41 16 13 8 5 5 9 10 6 360 353 20 20 25 24 33 34 28 24 34 39 43 46 48 57 88 104 92 93 86 85 88 67 58 55 44 39 43 45 35 32 32 39 45 44 44 47 47 42 42 43 41 41 33 36 44 45 39 36 34 26 34 35 35 29 16 18
297 228 208 217 209 219 254 351 7 12 329 340 148 345 303 263 250 201 197 325 34 351 76 36 20 30 52 62 55 29 30 32 35 17 4 353 5 356 8 4 14 20 27 16 23 48 46 37 27 30 44 41 46 52 58 74 68 84 82 70 60 58 55 40 45 46 41 40 46 44 40 33 36 45 45 46 46 45 46 43 43 43 38 35 32 37 34 30 28 27 22 28 32 25 36 40 20
132 267 198 215 207 170 151 139 99 237 166 323 27 162 260 329 311 194 166 146 65 2 34 266 343 43 72 105 75 46 23 14 21 32 17 26 10 19 9 7 355 28 19 359 28 53 59 56 43 37 42 46 47 60 67 83 77 70 72 77 80 72 86 66 59 53 60 57 54 47 44 37 33 38 39 41 44 44 46 42 42 44 43 41 32 36 35 30 27 24 12 25 25 19 25 50 34
229 245 135 142 149 176 187 154 170 204 257 302 51 125 190 317 294 80 142 131 133 219 244 256 231 212 196 150 126 78 33 351 27 24 19 11 5 360 10 349 357 12 8 12 36 45 59 61 61 52 45 49 45 65 70 64 82 81 85 85 80 81 76 87 68 63 56 55 57 47 43 42 38 36 37 38 39 40 41 43 38 40 42 37 33 38 36 25 27 27 29 28 30 31 23 33 32
223 216 137 150 163 176 140 143 165 191 60 275 321 214 274 246 260 56 162 185 208 234 216 211 207 219 204 199 162 144 209 265 148 86 41 355 350 354 355 11 353 16 14 32 35 46 61 67 71 67 57 50 43 58 77 73 80 87 89 93 89 77 83 82 81 67 62 49 61 45 45 42 42 40 39 39 37 38 39 41 37 39 39 35 33 34 31 30 32 28 23 26 27 29 32 21 34
227 124 90 81 74 68 107 109 116 354 101 257 244 189 218 274 270 304 357 227 247 213 208 193 202 195 197 191 188 186 231 355 259 245 256 283 291 327 332 340 26 10 10 33 47 58 66 75 80 76 64 55 53 61 72 77 80 87 87 84 89 91 86 86 76 69 61 50 60 49 42 41 36 38 38 39 39 37 39 39 40 38 36 34 33 31 28 27 25 27 26 29 27 31 26 29 36
131 113 76 41 40 39 36 63 83 69 261 242 228 244 177 295 253 216 153 217 200 146 111 160 198 213 218 206 185 180 176 191 217 240 264 261 280 291 10 60 44 37 37 55 59 58 67 76 83 74 61 63 57 62 69 74 77 75 83 84 86 90 85 86 80 66 61 54 55 48 45 42 39 40 36 38 39 34 38 39 40 39 39 36 32 28 26 21 17 21 22 27 32 29 22 19 25
126 120 127 86 11 9 30 341 29 148 267 261 264 224 180 171 285 274 229 322 178 164 172 174 189 199 199 192 195 193 190 198 215 221 179 114 97 77 70 95 82 73 70 69 69 66 75 79 85 83 60 57 58 66 72 73 78 78 79 82 84 83 86 82 78 77 64 67 60 59 52 50 43 43 39 38 34 29 31 36 36 37 35 31 32 28 25 19 15 19 24 24 23 22 19 20 19
82 90 86 121 235 41 277 16 256 212 208 245 348 131 86 238 230 198 215 201 218 240 183 179 180 187 190 192 191 188 187 189 208 194 183 180 150 142 131 128 108 94 94 91 86 87 86 85 87 93 76 66 68 73 80 82 81 79 84 86 87 86 82 81 82 81 70 69 62 59 48 49 39 39 33 37 31 26 28 31 31 31 30 29 26 26 24 21 17 21 23 21 21 24 13 3 16
137 162 149 105 108 67 258 269 276 310 285 281 334 179 278 249 285 216 188 207 193 225 234 215 187 181 182 183 181 182 189 196 198 200 200 183 177 170 163 142 133 126 110 103 102 97 96 96 94 93 95 82 89 86 88 88 81 84 85 89 87 89 83 80 78 81 73 71 67 65 58 52 52 47 40 40 29 27 34 34 35 37 34 29 27 24 23 21 16 20 19 18 15 18 6 3 1
210 76 154 182 142 156 218 185 211 218 187 267 282 75 229 138 235 354 246 284 292 260 245 236 226 193 171 154 161 178 193 205 199 200 202 193 190 190 178 167 150 142 131 118 112 109 109 103 105 104 104 93 91 92 92 88 88 84 86 85 88 86 89 84 79 77 74 71 62 65 58 54 56 48 45 35 30 35 32 31 33 33 29 27 23 23 20 18 15 13 18 14 11 11 4 2 0
286 184 70 91 231 142 210 200 156 193 298 319 217 214 188 187 175 291 321 318 299 327 238 185 205 175 149 157 181 193 200 200 197 201 205 209 206 200 193 182 174 153 143 132 122 125 117 116 111 107 109 115 104 100 90 91 90 89 88 90 88 89 89 86 77 66 63 65 68 69 67 59 53 48 44 35 26 31 27 27 27 30 24 24 22 20 16 15 11 9 8 9 6 1 359 359 358
201 107 195 210 143 103 92 71 61 78 51 254 153 297 293 301 331 328 325 21 273 338 198 181 186 169 164 184 193 202 205 200 198 200 196 198 202 213 203 190 177 166 152 147 146 144 136 130 124 115 113 111 109 102 103 95 93 90 82 83 85 82 82 82 85 79 76 67 67 64 66 60 52 45 38 32 27 26 26 25 24 25 22 18 19 16 12 10 7 6 7 1 360 356 354 352 350
100 189 230 168 153 122 132 215 20 67 199 267 115 205 213 110 253 84 6 247 250 231 194 196 180 165 185 197 198 203 203 200 200 199 199 202 202 199 200 200 189 174 164 154 155 157 141 136 133 128 129 122 121 111 102 102 100 91 87 80 75 82 90 88 86 85 76 77 67 63 60 56 47 37 36 32 29 29 27 22 25 23 22 19 18 10 9 5 2 4 359 358 348 346 346 346 346
149 194 209 122 215 194 303 86 255 206 252 264 274 265 259 186 219 108 234 207 225 203 191 181 190 189 197 200 206 208 205 194 193 198 198 202 204 202 194 193 189 184 173 165 155 155 147 140 136 130 130 129 128 115 104 91 91 92 88 86 88 83 77 80 80 82 82 75 65 56 55 58 52 39 35 34 29 31 27 20 25 21 19 19 16 11 6 6 360 358 352 348 347 350 345 339 336
46 77 81 46 112 172 127 197 183 118 261 54 288 115 239 197 212 185 201 202 201 168 182 206 200 195 192 197 200 200 198 193 194 198 200 198 198 200 195 188 184 181 175 174 164 154 157 149 132 124 114 113 109 107 110 103 97 100 93 86 73 81 82 88 88 87 79 74 70 62 59 57 50 42 38 34 35 34 25 23 22 22 16 17 13 11 8 4 357 359 350 346 343 344 339 334 330
87 84 240 121 0 219 110 353 134 183 187 202 272 292 268 252 208 179 203 196 184 177 192 193 197 201 203 201 196 197 192 194 197 196 196 191 195 200 199 194 186 177 167 163 167 164 157 145 140 143 134 127 119 126 114 110 108 102 102 96 100 97 94 91 87 80 81 75 70 63 56 54 48 42 32 29 31 27 22 20 19 19 18 11 10 5 3 357 354 350 348 340 339 340 336 330 328
175 170 190 178 135 145 172 253 57 95 150 244 147 265 125 265 132 191 185 237 183 207 178 184 197 200 201 204 205 197 195 202 199 196 188 185 193 198 194 185 184 170 176 178 176 147 152 159 153 143 131 133 136 138 127 126 112 109 106 110 105 100 98 91 87 82 80 74 59 53 48 44 51 38 35 34 30 22 20 15 15 14 11 9 5 2 356 353 348 345 342 340 336 336 332 327 328